| time (UTC) | temp F | wind direction | speed knots | gust knots | rain 1hr in | rain 24hr in | rain mn in | humidity % | barometer mb |
| 20260901110108 | 54 | 217 | 4.3 | 12.2 | 0.00 | 0.00 | 0.00 | 88 | 1011.3 |
| 20260901104606 | 54 | 168 | 5.2 | 10.4 | 0.00 | 0.00 | 0.00 | 87 | 1011.2 |
| 20260901103106 | 55 | 205 | 6.1 | 13.0 | 0.00 | 0.00 | 0.00 | 87 | 1011.2 |
| 20260901101617 | 55 | 215 | 7.0 | 11.3 | 0.00 | 0.00 | 0.00 | 86 | 1010.9 |
| 20260901100117 | 55 | 209 | 7.0 | 12.2 | 0.00 | 0.00 | 0.00 | 86 | 1011.1 |
| 20260901094600 | 55 | 179 | 4.3 | 9.6 | 0.00 | 0.00 | 0.00 | 85 | 1011.1 |
| 20260901093108 | 56 | 186 | 4.3 | 12.2 | 0.00 | 0.00 | 0.00 | 85 | 1011.0 |
| 20260901091555 | 56 | 229 | 6.1 | 13.0 | 0.00 | 0.00 | 0.00 | 84 | 1010.8 |
| 20260901090104 | 56 | 223 | 7.0 | 13.0 | 0.00 | 0.00 | 0.00 | 84 | 1010.7 |
| 20260901084600 | 57 | 213 | 7.0 | 10.4 | 0.00 | 0.00 | 0.00 | 84 | 1010.6 |
| 20260901083108 | 57 | 180 | 4.3 | 8.7 | 0.00 | 0.00 | 0.00 | 83 | 1010.6 |
| 20260901081615 | 57 | 224 | 4.3 | 8.7 | 0.00 | 0.00 | 0.00 | 83 | 1010.8 |
| 20260901080100 | 57 | 207 | 6.1 | 9.6 | 0.00 | 0.00 | 0.00 | 83 | 1010.7 |
| 20260901074604 | 58 | 216 | 4.3 | 8.7 | 0.00 | 0.00 | 0.00 | 82 | 1010.5 |
| 20260901073106 | 58 | 219 | 7.0 | 10.4 | 0.00 | 0.00 | 0.00 | 80 | 1010.4 |
| 20260901071601 | 59 | 206 | 6.1 | 12.2 | 0.00 | 0.00 | 0.00 | 78 | 1010.1 |
| 20260901070103 | 60 | 203 | 7.0 | 12.2 | 0.00 | 0.00 | 0.00 | 76 | 1010.1 |
| 20260901064606 | 61 | 221 | 6.1 | 11.3 | 0.00 | 0.00 | 0.00 | 74 | 1010.0 |
| 20260901063101 | 61 | 219 | 6.1 | 9.6 | 0.00 | 0.00 | 0.00 | 73 | 1009.8 |
| 20260901061602 | 62 | 188 | 6.1 | 11.3 | 0.00 | 0.00 | 0.00 | 72 | 1009.7 |
| 20260901060100 | 63 | 202 | 5.2 | 7.8 | 0.00 | 0.00 | 0.00 | 70 | 1009.5 |
| 20260901054601 | 64 | 223 | 4.3 | 8.7 | 0.00 | 0.00 | 0.00 | 68 | 1009.4 |
| 20260901053118 | 65 | 188 | 4.3 | 7.8 | 0.00 | 0.00 | 0.00 | 66 | 1009.4 |
| 20260901051607 | 66 | 203 | 3.5 | 6.1 | 0.00 | 0.00 | 0.00 | 64 | 1009.6 |
| 20260901050106 | 68 | 176 | 2.6 | 7.0 | 0.00 | 0.00 | 0.00 | 60 | 1009.3 |
| 20260901044634 | 70 | 199 | 3.5 | 7.0 | 0.00 | 0.00 | 0.00 | 55 | 1009.0 |
| 20260901043113 | 71 | 217 | 2.6 | 5.2 | 0.00 | 0.00 | 0.00 | 51 | 1009.1 |
| 20260901041602 | 72 | 210 | 3.5 | 7.0 | 0.00 | 0.00 | 0.00 | 49 | 1008.8 |
| 20260901040059 | 72 | 221 | 2.6 | 4.3 | 0.00 | 0.00 | 0.00 | 49 | 1008.6 |
| 20260901034609 | 72 | 211 | 2.6 | 4.3 | 0.00 | 0.00 | 0.00 | 48 | 1008.3 |
| 20260901033052 | 72 | 217 | 2.6 | 4.3 | 0.00 | 0.00 | 0.00 | 48 | 1008.2 |
| 20260901031600 | 72 | 213 | 2.6 | 2.6 | 0.00 | 0.00 | 0.00 | 49 | 1008.1 |
| 20260901024605 | 73 | 204 | 1.7 | 3.5 | 0.00 | 0.00 | 0.00 | 49 | 1008.1 |
| 20260901023107 | 74 | 235 | 1.7 | 4.3 | 0.00 | 0.00 | 0.00 | 47 | 1008.2 |
| 20260901021634 | 75 | 228 | 2.6 | 7.0 | 0.00 | 0.00 | 0.00 | 44 | 1008.1 |
| 20260901020111 | 76 | 191 | 3.5 | 6.1 | 0.00 | 0.00 | 0.00 | 43 | 1008.0 |
| 20260901014606 | 77 | 197 | 3.5 | 8.7 | 0.00 | 0.00 | 0.00 | 43 | 1008.0 |
| 20260901013108 | 78 | 237 | 3.5 | 6.1 | 0.00 | 0.00 | 0.00 | 42 | 1007.9 |
| 20260901011556 | 78 | 231 | 2.6 | 7.8 | 0.00 | 0.00 | 0.00 | 44 | 1008.2 |
| 20260901010101 | 79 | 211 | 3.5 | 7.8 | 0.00 | 0.00 | 0.00 | 43 | 1008.2 |
| 20260901004608 | 80 | 175 | 3.5 | 7.8 | 0.00 | 0.00 | 0.00 | 43 | 1008.0 |
| 20260901003122 | 80 | 193 | 2.6 | 7.0 | 0.00 | 0.00 | 0.00 | 42 | 1008.1 |
| 20260901001612 | 80 | 217 | 2.6 | 7.0 | 0.00 | 0.00 | 0.00 | 42 | 1008.1 |
| 20260901000059 | 81 | 227 | 2.6 | 6.1 | 0.00 | 0.00 | 0.00 | 38 | 1008.1 |
| 20260831234620 | 80 | 221 | 1.7 | 5.2 | 0.00 | 0.00 | 0.00 | 39 | 1008.3 |
| 20260831233145 | 81 | 202 | 3.5 | 7.8 | 0.00 | 0.00 | 0.00 | 37 | 1008.3 |
| 20260831231607 | 82 | 212 | 2.6 | 5.2 | 0.00 | 0.00 | 0.00 | 38 | 1008.3 |
| 20260831230057 | 81 | 0 | 0.9 | 6.1 | 0.00 | 0.00 | 0.00 | 38 | 1008.3 |
| 20260831224555 | 80 | 262 | 2.6 | 4.3 | 0.00 | 0.00 | 0.00 | 41 | 1008.6 |
| 20260831223058 | 81 | 15 | 0.9 | 2.6 | 0.00 | 0.00 | 0.00 | 40 | 1008.6 |
| 20260831221604 | 79 | 187 | 1.7 | 4.3 | 0.00 | 0.00 | 0.00 | 40 | 1008.7 |
| 20260831220116 | 78 | 267 | 1.7 | 5.2 | 0.00 | 0.00 | 0.00 | 43 | 1009.0 |
| 20260831214559 | 79 | 22 | 0.9 | 5.2 | 0.00 | 0.00 | 0.00 | 44 | 1009.1 |
| 20260831213101 | 78 | 62 | 0.9 | 3.5 | 0.00 | 0.00 | 0.00 | 45 | 1009.2 |
| 20260831211612 | 78 | 333 | 0.9 | 4.3 | 0.00 | 0.00 | 0.00 | 45 | 1009.2 |
| 20260831210103 | 78 | 46 | 2.6 | 6.1 | 0.00 | 0.00 | 0.00 | 46 | 1009.4 |
| 20260831204559 | 76 | 331 | 1.7 | 6.1 | 0.00 | 0.00 | 0.00 | 44 | 1009.3 |
| 20260831203053 | 76 | 9 | 1.7 | 3.5 | 0.00 | 0.00 | 0.00 | 48 | 1009.5 |
| 20260831201608 | 75 | 42 | 1.7 | 6.1 | 0.00 | 0.00 | 0.00 | 49 | 1009.6 |
| 20260831200106 | 74 | 334 | 1.7 | 5.2 | 0.00 | 0.00 | 0.00 | 51 | 1009.7 |
| 20260831194635 | 73 | 88 | 1.7 | 7.0 | 0.00 | 0.00 | 0.00 | 49 | 1010.0 |
| 20260831193102 | 73 | 50 | 2.6 | 6.1 | 0.00 | 0.00 | 0.00 | 52 | 1010.0 |
| 20260831191602 | 72 | 34 | 1.7 | 4.3 | 0.00 | 0.00 | 0.00 | 53 | 1010.3 |
| 20260831190120 | 72 | 75 | 2.6 | 7.0 | 0.00 | 0.00 | 0.00 | 57 | 1010.5 |
| 20260831184631 | 70 | 40 | 2.6 | 9.6 | 0.00 | 0.00 | 0.00 | 57 | 1010.7 |
| 20260831183107 | 69 | 63 | 4.3 | 7.8 | 0.00 | 0.00 | 0.00 | 58 | 1011.0 |
| 20260831181559 | 69 | 68 | 4.3 | 7.0 | 0.00 | 0.00 | 0.00 | 61 | 1011.1 |
| 20260831180103 | 67 | 54 | 3.5 | 7.0 | 0.00 | 0.00 | 0.00 | 62 | 1011.2 |
| 20260831174612 | 66 | 18 | 2.6 | 7.0 | 0.00 | 0.00 | 0.00 | 63 | 1011.3 |
| 20260831173107 | 65 | 24 | 2.6 | 7.0 | 0.00 | 0.00 | 0.00 | 66 | 1011.2 |
| 20260831171555 | 64 | 14 | 1.7 | 5.2 | 0.00 | 0.00 | 0.00 | 71 | 1011.4 |
| 20260831164606 | 62 | 352 | 1.7 | 7.0 | 0.00 | 0.00 | 0.00 | 72 | 1011.5 |
| 20260831163103 | 60 | 347 | 2.6 | 7.0 | 0.00 | 0.00 | 0.00 | 78 | 1011.5 |
| 20260831161607 | 59 | 53 | 2.6 | 7.8 | 0.00 | 0.00 | 0.00 | 80 | 1011.6 |
| 20260831160109 | 59 | 352 | 1.7 | 7.0 | 0.00 | 0.00 | 0.00 | 81 | 1011.7 |
| 20260831154621 | 57 | 28 | 2.6 | 7.0 | 0.00 | 0.00 | 0.00 | 84 | 1011.7 |
| 20260831153104 | 56 | 14 | 3.5 | 7.0 | 0.00 | 0.00 | 0.00 | 85 | 1011.7 |
| 20260831151605 | 55 | 24 | 2.6 | 7.0 | 0.00 | 0.00 | 0.00 | 86 | 1011.8 |
| 20260831150058 | 55 | 351 | 3.5 | 7.0 | 0.00 | 0.00 | 0.00 | 88 | 1011.8 |
| 20260831144630 | 54 | 360 | 4.3 | 7.8 | 0.00 | 0.00 | 0.00 | 89 | 1011.8 |
| 20260831143101 | 53 | 13 | 4.3 | 7.8 | 0.00 | 0.00 | 0.00 | 90 | 1011.9 |
| 20260831141605 | 53 | 360 | 4.3 | 7.0 | 0.00 | 0.00 | 0.00 | 90 | 1012.0 |
| 20260831140057 | 52 | 345 | 3.5 | 7.0 | 0.00 | 0.00 | 0.00 | 90 | 1011.9 |
| 20260831134600 | 52 | 346 | 3.5 | 5.2 | 0.00 | 0.00 | 0.00 | 90 | 1012.0 |
| 20260831133107 | 53 | 347 | 4.3 | 7.8 | 0.00 | 0.00 | 0.00 | 90 | 1012.0 |
| 20260831131603 | 53 | 9 | 3.5 | 7.8 | 0.00 | 0.00 | 0.00 | 90 | 1012.0 |
| 20260831130116 | 53 | 339 | 3.5 | 8.7 | 0.00 | 0.00 | 0.00 | 89 | 1012.1 |
| 20260831124604 | 53 | 360 | 4.3 | 8.7 | 0.00 | 0.00 | 0.00 | 89 | 1012.2 |
| 20260831123105 | 53 | 345 | 3.5 | 7.8 | 0.00 | 0.00 | 0.00 | 89 | 1012.3 |
| 20260831121601 | 53 | 352 | 4.3 | 7.8 | 0.00 | 0.00 | 0.00 | 89 | 1012.5 |
| 20260831120057 | 54 | 342 | 3.5 | 5.2 | 0.00 | 0.00 | 0.00 | 89 | 1012.5 |
| 20260831114605 | 54 | 352 | 3.5 | 7.0 | 0.00 | 0.00 | 0.00 | 89 | 1012.6 |
| 20260831113107 | 54 | 344 | 3.5 | 6.1 | 0.00 | 0.00 | 0.00 | 89 | 1012.8 |
| 20260831111612 | 54 | 360 | 2.6 | 7.0 | 0.00 | 0.00 | 0.00 | 88 | 1013.0 |